Weather History for Kalispell, MT

Change the Weather History Date:

Saturday, June 22, 2013

  Actual Average Record
Temperature  
Mean Temperature 54 °F 59 °F  
Max Temperature 68 °F 74 °F 96 °F (1955)
Min Temperature 39 °F 45 °F 33 °F (1983)
Degree Days  
Heating Degree Days 11 6  
Month to date heating degree days 163 172  
Since 1 June heating degree days 163 172  
Since 1 July heating degree days 7429 7995  
Cooling Degree Days 0 1  
Month to date cooling degree days 3 3  
Year to date cooling degree days 3 6  
Since 1 June cooling degree days 3 3  
Growing Degree Days 2 (Base 50)    
Moisture  
Dew Point 45 °F    
Average Humidity 74    
Maximum Humidity 100    
Minimum Humidity 48    
Precipitation  
Precipitation 0.01 in 0.09 in 0.63 in (2009)
Month to date precipitation 2.30 1.94  
Year to date precipitation 8.60 8.55  
Snow  
Snow 0.00 in - - ()
Month to date snowfall 0.0  
Year to date snowfall 10.1  
Since 1 July snowfall 18.9  
Snow Depth 0.00 in    
Sea Level Pressure  
Sea Level Pressure 30.04 in    
Wind  
Wind Speed 3 mph (South)    
Max Wind Speed 100 mph    
Max Gust Speed 109 mph    
Visibility 9 miles    
Events Rain    
T = Trace of Precipitation, MM = Missing Value Source: NWS Daily Summary

Daily Weather History Graph

Daily Weather History Graph

Search for Another Location

Airport:

Trip Planner

Search our weather history database for the weather conditions in past years. The results will help you decide how hot, cold, wet, or windy it might be!

Date:

Astronomy

Jun. 22, 2013 Rise Set
Actual Time 5:36 AM MDT 9:41 PM MDT
Civil Twilight 4:54 AM MDT 10:23 PM MDT
Nautical Twilight 3:55 AM MDT 11:22 PM MDT
Astronomical Twilight 2:06 AM MDT 1:11 AM MDT
Moon 8:55 PM MDT 4:58 AM MDT
Length of Visible Light 17h 29m
Length of Day
16h 05m
Waxing Gibbous, 99% of the Moon is Illuminated
Jun 22
Waxing Gibbous
Jun 23
Full
Jun 29
Last Quarter
Jul 8
New
Jul 15
First Quarter

Hourly Weather History & Observations

Time (MDT) Temp. Windchill Dew Point Humidity Pressure Visibility Wind Dir Wind Speed Gust Speed Precip Events Conditions
12:55 AM 45.0 °F - 44.1 °F 97% 30.09 in 10.0 mi Calm Calm - N/A   Clear
1:55 AM 44.1 °F - 43.0 °F 96% 30.08 in 10.0 mi Calm Calm - N/A   Clear
2:55 AM 39.9 °F 37.8 °F 39.0 °F 97% 30.09 in 7.0 mi SSW 3.5 mph - N/A   Clear
3:25 AM 39.2 °F - 39.2 °F 100% 30.07 in 2.5 mi Calm Calm - N/A   Partly Cloudy
3:31 AM 39.2 °F - 39.2 °F 100% 30.07 in 1.2 mi Calm Calm - N/A   Partly Cloudy
3:38 AM 39.2 °F - 39.2 °F 100% 30.07 in 2.0 mi Calm Calm - N/A   Partly Cloudy
3:55 AM 39.9 °F 37.8 °F 39.0 °F 97% 30.08 in 7.0 mi NW 3.5 mph - N/A   Partly Cloudy
4:55 AM 39.9 °F - 37.9 °F 93% 30.08 in 10.0 mi Calm Calm - N/A   Partly Cloudy
5:55 AM 42.1 °F - 41.0 °F 96% 30.09 in 10.0 mi Calm Calm - N/A   Overcast
6:55 AM 44.1 °F - 43.0 °F 96% 30.09 in 10.0 mi Calm Calm - N/A   Overcast
7:55 AM 46.0 °F - 44.1 °F 93% 30.09 in 10.0 mi Calm Calm - N/A   Overcast
8:55 AM 50.0 °F - 46.0 °F 86% 30.08 in 10.0 mi Calm Calm - N/A   Mostly Cloudy
9:55 AM 55.0 °F - 48.0 °F 77% 30.07 in 10.0 mi Calm Calm - N/A   Clear
10:55 AM 59.0 °F - 45.0 °F 60% 30.05 in 10.0 mi Variable 3.5 mph - N/A   Partly Cloudy
11:55 AM 60.1 °F - 45.0 °F 57% 30.04 in 10.0 mi Calm Calm - N/A   Partly Cloudy
12:55 PM 63.0 °F - 46.0 °F 54% 30.04 in 10.0 mi South 4.6 mph - N/A   Scattered Clouds
1:55 PM 64.9 °F - 46.9 °F 52% 30.02 in 10.0 mi SSE 6.9 mph - 0.00 in   Mostly Cloudy
2:55 PM 64.0 °F - 46.0 °F 52% 30.01 in 10.0 mi SE 8.1 mph - N/A   Overcast
3:55 PM 64.0 °F - 46.9 °F 54% 30.01 in 10.0 mi SSE 5.8 mph - 0.00 in Rain Light Rain
4:55 PM 64.9 °F - 45.0 °F 48% 29.99 in 10.0 mi South 8.1 mph - 0.00 in   Mostly Cloudy
5:55 PM 66.0 °F - 46.0 °F 48% 29.97 in 10.0 mi SSE 6.9 mph - N/A   Clear
6:55 PM 63.0 °F - 46.0 °F 54% 29.96 in 10.0 mi South 9.2 mph - N/A   Mostly Cloudy
7:55 PM 59.0 °F - 51.1 °F 75% 29.97 in 10.0 mi SSE 8.1 mph - 0.00 in Rain Light Rain
8:55 PM 57.9 °F - 50.0 °F 75% 29.98 in 10.0 mi NNW 3.5 mph - 0.00 in   Mostly Cloudy
9:55 PM 55.0 °F - 50.0 °F 83% 29.98 in 10.0 mi Calm Calm - 0.01 in   Scattered Clouds
10:55 PM 52.0 °F - 48.9 °F 89% 29.99 in 10.0 mi NNW 3.5 mph - N/A   Mostly Cloudy
11:55 PM 51.1 °F - 48.9 °F 92% 29.98 in 10.0 mi Calm Calm - N/A   Partly Cloudy